Location: Althorst
(53.6379°N, 10.7715°E)
Time: 18:50:59
(UTC+00:00)

Cosmos 1315 Rocket - Pass Details

Date: 10 December 2019
Orbit: 529 x 569 km, 81.2° (Epoch: 28 January)

Event Time Altitude Azimuth Distance (km) Brightness Sun altitude
Rises 15:48:49 0° 184° (S) 2,695 6.9 -7.2°
Reaches altitude 10° 15:50:57 10° 182° (S) 1,814 5.9 -7.5°
Maximum altitude 15:54:55 67° 100° (E) 604 2.8 -8.0°
Drops below altitude 10° 15:58:59 10° 18° (NNE) 1,854 5.1 -8.5°
Enters shadow 16:00:42 - 16° (NNE) 2,564 5.8 -8.7°
